Location: Fontevrault
(47.1823°N, 0.0493°E)
Time: 01:10:17
(UTC+00:00)

Cosmos 1727 Rocket - Visible Passes

Search period start: 24 October 2021 00:00
Search period end: 03 November 2021 00:00
Orbit: 961 x 997 km, 82.9° (Epoch: 23 October)

Date Brightness Start Highest point End Pass type
(mag) Time Alt. Az. Time Alt. Az. Time Alt. Az.
24 Oct 5.2 05:36:12 10° SSE 05:42:12 48° E 05:48:10 10° NNE visible
24 Oct 5.9 18:14:46 10° NNW 18:20:08 32° W 18:25:28 10° SW visible
25 Oct 7.1 04:20:57 10° ESE 04:24:01 14° ENE 04:27:04 10° NE visible
25 Oct 4.2 06:02:08 10° S 06:08:27 82° E 06:14:45 10° N visible
25 Oct 6.8 18:42:05 10° NW 18:46:05 18° W 18:50:03 10° WSW visible
26 Oct 6.3 04:44:55 10° SE 04:49:54 25° E 04:54:50 10° NNE visible
26 Oct 4.7 17:21:38 10° NNW 17:27:45 61° W 17:33:48 10° S visible
27 Oct 5.3 05:10:04 10° SSE 05:15:57 43° E 05:21:49 10° NNE visible
27 Oct 5.8 17:48:23 10° NNW 17:53:54 35° W 17:59:21 10° SSW visible
28 Oct 7.1 03:55:21 10° E 03:57:50 13° ENE 04:00:18 10° NE visible
28 Oct 4.3 05:35:54 10° S 05:42:10 75° E 05:48:25 10° NNE visible
28 Oct 6.7 18:15:35 10° NW 18:19:52 20° W 18:24:08 10° SW visible
29 Oct 6.4 04:18:57 10° SE 04:23:40 23° E 04:28:22 10° NNE visible
29 Oct 4.0 06:02:20 10° SSW 06:08:34 65° WNW 06:14:48 10° N visible
29 Oct 7.3 18:44:28 10° WNW 18:45:39 11° WNW 18:46:51 10° W visible
30 Oct 5.4 04:43:57 10° SSE 04:49:42 39° E 04:55:26 10° NNE visible
30 Oct 5.7 17:22:00 10° NNW 17:27:39 38° W 17:33:15 10° SSW visible
31 Oct 7.1 03:30:00 10° E 03:31:39 11° ENE 03:33:18 10° ENE visible
31 Oct 4.4 05:09:39 10° S 05:15:53 69° E 05:22:06 10° NNE visible
31 Oct 6.6 17:49:05 10° NW 17:53:39 22° W 17:58:11 10° SW visible
01 Nov 6.4 03:53:01 10° SE 03:57:28 21° E 04:01:53 10° NE visible
01 Nov 4.0 05:36:00 10° SSW 05:42:15 71° W 05:48:31 10° N visible
01 Nov 7.1 18:17:19 10° NW 18:19:28 12° WNW 18:21:38 10° W visible
02 Nov 5.5 04:17:51 10° SSE 04:23:27 36° E 04:29:02 10° NNE visible
02 Nov 4.4 06:02:56 10° SW 06:08:49 41° WNW 06:14:42 10° N visible
